Weather History for Tupelo, MS

Change the Weather History Date:

Sunday, December 9, 2012

  Actual Average Record
Temperature  
Mean Temperature 66 °F 45 °F  
Max Temperature 71 °F 55 °F 78 °F (2007)
Min Temperature 61 °F 35 °F 11 °F (1937)
Degree Days  
Heating Degree Days 0 20  
Month to date heating degree days 36 169  
Since 1 July heating degree days 655 691  
Cooling Degree Days 1 0  
Month to date cooling degree days 1 0  
Year to date cooling degree days 2203 2044  
Growing Degree Days 16 (Base 50)    
Moisture  
Dew Point 60 °F    
Average Humidity 84    
Maximum Humidity 97    
Minimum Humidity 70    
Precipitation  
Precipitation 0.00 in 0.22 in 4.10 in (2008)
Month to date precipitation 1.53 1.97  
Year to date precipitation 44.21 50.70  
Snow  
Snow 0.00 in 0.00 in 0.30 in (1989)
Month to date snowfall 0.0 0.0  
Since 1 July snowfall 0.0 0.0  
Snow Depth 0.00 in    
Sea Level Pressure  
Sea Level Pressure 29.89 in    
Wind  
Wind Speed 11 mph (SSW)    
Max Wind Speed 18 mph    
Max Gust Speed 23 mph    
Visibility 9 miles    
Events      
T = Trace of Precipitation, MM = Missing Value Source: NWS Daily Summary

Daily Weather History Graph

Daily Weather History Graph

Search for Another Location

Airport:

Trip Planner

Search our weather history database for the weather conditions in past years. The results will help you decide how hot, cold, wet, or windy it might be!

Date:

Astronomy

Dec. 09, 2012 Rise Set
Actual Time 6:49 AM CST 4:45 PM CST
Civil Twilight 6:22 AM CST 5:13 PM CST
Nautical Twilight 5:50 AM CST 5:44 PM CST
Astronomical Twilight 5:20 AM CST 6:14 PM CST
Moon 2:30 AM CST (12/9) 1:45 PM CST (12/9)
Length of Visible Light 10h 50m
Length of Day
9h 55m
Waning Crescent, 18% of the Moon is Illuminated
Dec 9
Waning Crescent
Dec 13
New
Dec 19
First Quarter
Dec 28
Full
Jan 4
Last Quarter

Hourly Weather History & Observations

Time (CST) Temp. Dew Point Humidity Pressure Visibility Wind Dir Wind Speed Gust Speed Precip Events Conditions
12:16 AM 62.6 °F 60.8 °F 94% 29.94 in 9.0 mi South 6.9 mph - N/A   Overcast
12:53 AM 61.0 °F 59.0 °F 93% 29.93 in 9.0 mi South 6.9 mph - N/A   Mostly Cloudy
1:30 AM 62.6 °F 60.8 °F 94% 29.93 in 8.0 mi South 9.2 mph - N/A   Mostly Cloudy
1:53 AM 62.1 °F 60.1 °F 93% 29.93 in 7.0 mi South 9.2 mph - N/A   Overcast
2:24 AM 62.6 °F 60.8 °F 94% 29.94 in 6.0 mi South 9.2 mph - N/A   Overcast
2:53 AM 62.1 °F 60.1 °F 93% 29.93 in 6.0 mi South 9.2 mph - N/A   Overcast
3:53 AM 62.1 °F 60.1 °F 93% 29.92 in 7.0 mi SSW 10.4 mph - N/A   Mostly Cloudy
4:00 AM 62.6 °F 60.8 °F 94% 29.92 in 7.0 mi SSW 10.4 mph - N/A   Mostly Cloudy
4:53 AM 62.1 °F 60.1 °F 93% 29.92 in 6.0 mi SSW 10.4 mph - N/A   Overcast
5:53 AM 61.0 °F 59.0 °F 93% 29.94 in 6.0 mi SSW 6.9 mph - N/A   Overcast
6:53 AM 61.0 °F 59.0 °F 93% 29.95 in 7.0 mi SSW 8.1 mph - N/A   Mostly Cloudy
7:53 AM 61.0 °F 59.0 °F 93% 29.96 in 7.0 mi SSW 9.2 mph - N/A   Scattered Clouds
8:53 AM 63.0 °F 59.0 °F 87% 29.97 in 10.0 mi SSW 9.2 mph - N/A   Partly Cloudy
9:53 AM 66.9 °F 60.1 °F 79% 29.97 in 10.0 mi SSW 10.4 mph - N/A   Scattered Clouds
10:53 AM 66.9 °F 59.0 °F 76% 29.96 in 10.0 mi SSW 16.1 mph - N/A   Mostly Cloudy
11:53 AM 68.0 °F 59.0 °F 73% 29.93 in 10.0 mi South 11.5 mph - N/A   Scattered Clouds
12:53 PM 68.0 °F 59.0 °F 73% 29.90 in 10.0 mi South 15.0 mph - N/A   Partly Cloudy
1:53 PM 69.1 °F 59.0 °F 70% 29.89 in 10.0 mi SSW 16.1 mph 21.9 mph N/A   Clear
2:53 PM 70.0 °F 59.0 °F 68% 29.88 in 10.0 mi South 15.0 mph - N/A   Clear
3:53 PM 69.1 °F 59.0 °F 70% 29.87 in 10.0 mi South 12.7 mph - N/A   Partly Cloudy
4:53 PM 66.0 °F 59.0 °F 78% 29.86 in 10.0 mi South 10.4 mph - N/A   Partly Cloudy
5:53 PM 66.0 °F 59.0 °F 78% 29.86 in 10.0 mi South 10.4 mph - N/A   Scattered Clouds
6:53 PM 66.0 °F 59.0 °F 78% 29.86 in 10.0 mi South 6.9 mph - N/A   Overcast
7:53 PM 66.9 °F 59.0 °F 76% 29.84 in 10.0 mi South 10.4 mph - N/A   Overcast
8:53 PM 66.9 °F 59.0 °F 76% 29.82 in 10.0 mi SSW 12.7 mph - N/A   Mostly Cloudy
9:53 PM 66.0 °F 60.1 °F 81% 29.80 in 10.0 mi SSW 11.5 mph - N/A   Clear
10:28 PM 66.2 °F 60.8 °F 83% 29.81 in 10.0 mi SSW 12.7 mph - N/A   Mostly Cloudy
10:53 PM 68.0 °F 62.1 °F 81% 29.80 in 10.0 mi SSW 13.8 mph - N/A   Overcast
11:03 PM 68.0 °F 62.6 °F 83% 29.80 in 10.0 mi SW 12.7 mph 20.7 mph N/A   Overcast
11:53 PM 68.0 °F 63.0 °F 84% 29.77 in 10.0 mi SSW 16.1 mph - N/A   Overcast